ATLAS 5 CENTAUR DEB, 46862

Orbit data source: Space-Track

ATLAS 5 CENTAUR DEB, 46862 is space debris in HEO originally from a launch on Wed, 17 Oct 2018 UTC launched from the Air Force Eastern Test Range (AFETR). Debris objects in space refer to the collection of defunct objects orbiting the Earth. Examples of debris include non-operational satellites, rocket bodies, and fragments generated from explosions, collisions, or faulty payload assembly.

Loading next visibility...
Identifier
46862, 2018-079DT
Orbit
HEO
Country
Flag of USUS
Related business
Flag of USUnited Launch Alliance/Lockheed Martin (US)
Manufacturer
ULA Decatur
Mission
Spacecraft
Bus & Motor
Unknown
Mass
Unknown
Launch date (UTC)
2018-10-17 (7 years ago)
Launch vehicle
Unknown
Launch site
Air Force Eastern Test Range (AFETR)
Object type
Payload
Rocket body
Debris
Shape & HBR
Unknown
Radar Cross Section
RCS unknown

Expand to show TLE details & history
Last TLE update: 1 year ago

TLE from 1 year ago
0 ATLAS 5 CENTAUR DEB
1 46862U 18079DT  24195.47924339 -.00000053  00000-0  00000-0 0  9992
2 46862  11.0677 129.2711 5109835 107.6729 312.4559  1.50438403 20320
Epoch: 2024-07-13T11:30Z
TLE epoch observation values (Epoch: 2024-07-13T11:30:06.628Z)
Latitude
0.00001°
Longitude
24.73037°
Altitude
21,843.887 km
Speed
3.982 km/s
True Right ascension
08h 36m 23s
True Declination
0° 00' 00"
Sunlit
Object was in daylight at epoch
Visualization orbit readout
Latitude
Unknown
Longitude
Unknown
Altitude
Unknown
Speed
Unknown
Apparent Right ascension
Unknown
Apparent Declination
Unknown
Sunlit
N/A
Visualization observer readout
Local Sidereal Time
22:40:33
Azimuth
Unknown
Elevation
Unknown
Doppler factor
Unknown
Orbital elements
Apogee altitude
42,238.342 km
Perigee altitude
9,356.158 km
Semi-major axis
32,175.387 km
Eccentricity
0.51098
Inclination
11.0677°
RAAN
129.2711°
Arg. of periapsis
107.6729°
True anomaly
252.17478°
Mean anomaly
312.4559°
Eccentric anomaly
284.0552°
Mean motion
0.37606 °/min
Orbital period
957.29 mins
BSTAR
0
Loading maneuver chart data...
Computing Atmospheric mass density...

Documentation

Showing up to 5 results
|